Location: Marion Hill
(40.7303°N, 80.2959°W)
Time: 08:35:50
(UTC+00:00)

Cosmos 2297 Rocket - Pass Details

Date: 29 October 2020
Orbit: 838 x 845 km, 71.0° (Epoch: 28 November)

Event Time Altitude Azimuth Distance (km) Brightness Sun altitude
Rises 22:36:50 0° 342° (NNW) 3,412 5.4 -3.8°
Reaches altitude 10° 22:39:26 10° 350° (N) 2,473 4.6 -4.3°
Maximum altitude 22:44:47 41° 60° (ENE) 1,204 2.6 -5.3°
Drops below altitude 10° 22:50:06 10° 130° (SE) 2,457 4.3 -6.2°
Sets 22:52:40 0° 137° (SE) 3,387 5.0 -6.7°
